Location: Wawayanda State Park
(41.1833°N, 74.4333°W)
Time: 06:50:11
(UTC-05:00)

RESURS DK-1 - Visible Passes

Search period start: 08 December 2016 00:00
Search period end: 18 December 2016 00:00
Orbit: 555 x 566 km, 69.9° (Epoch: 08 December)

Date Brightness Start Highest point End Pass type
(mag) Time Alt. Az. Time Alt. Az. Time Alt. Az.
13 Dec 5.0 19:06:40 10° NNW 19:07:00 12° NNW 19:07:00 12° NNW visible
14 Dec 4.1 17:28:48 10° NNE 17:30:52 14° NE 17:30:52 14° NE visible
14 Dec 4.5 19:05:25 10° NNW 19:06:52 21° NW 19:06:52 21° NW visible
15 Dec 3.8 17:27:00 10° N 17:29:56 18° NE 17:31:16 16° ENE visible
15 Dec 3.7 19:04:15 10° NW 19:07:20 37° WNW 19:07:20 37° WNW visible
16 Dec 3.5 17:25:22 10° N 17:28:45 23° NE 17:32:07 10° ESE visible
16 Dec 4.1 19:03:08 10° NW 19:06:50 31° WSW 19:09:14 17° SSW visible
17 Dec 3.1 17:23:50 10° N 17:27:33 30° ENE 17:31:15 10° ESE visible
17 Dec 4.7 19:02:09 10° NW 19:05:27 23° WSW 19:08:43 10° SSW visible
